Regional Weather Roundup
Issued by NWS State College, PA

Home | Current Version | Previous Version | Text Only | Print | Product List | Glossary On
Versions: 1 2 3 4 5 6 7 8 9 10 11 12 13 14 15 16 17 18 19 20 21 22 23 24 25 26 27 28 29 30 31 32 33 34 35 36 37 38 39 40 41 42 43 44 45 46 47 48 49 50
000
ASUS41 KCTP 302010
RWRCTP

REGIONAL WEATHER ROUNDUP
NATIONAL WEATHER SERVICE STATE COLLEGE PA
400 PM EDT MON MAY 30 2016

Note: "fair" indicates few or no clouds below 12,000 feet with no
significant weather and/or obstructions to visibility.

* = STATION THAT DOES NOT REPORT PRECIPITATION /E.G. RAIN...SNOW...ETC/
    THUNDER OR FOG.

PAZ002>004-007>009-013>016-020>023-029>032-302100-
WESTERN PENNSYLVANIA

CITY           SKY/WX    TMP DP  RH WIND       PRES   REMARKS
ERIE           SUNNY     79  56  45 W12       30.00F
MEADVILLE      PTSUNNY   76  56  49 NW10      30.02F
FRANKLIN*      SUNNY     79  57  47 W10       30.04F
NEW CASTLE     MOCLDY    82  59  45 VRB6      30.01F
BEAVER COUNTY  NOT AVBL
BUTLER*        PTSUNNY   81  59  47 W9        30.02F
PITTSBURGH INT PTSUNNY   82  56  40 NW12      30.00F
PITTSBURGH     MOSUNNY   79  60  52 W5        29.99F
INDIANA*       MOSUNNY   81  64  57 NW9       30.02F
LATROBE        MOSUNNY   81  63  54 W12       29.98F
WASHINGTON CO* MOSUNNY   81  63  54 NW7       30.00F
$$

PAZ004>006-010>012-017>019-024>028-033>037-041-042-045-046-049>053-302100-
CENTRAL PENNSYLVANIA

CITY           SKY/WX    TMP DP  RH WIND       PRES   REMARKS
BRADFORD       MOSUNNY   77  52  41 W13G21    30.01F
DUBOIS         SUNNY     80  56  43 W9        29.99F
CLEARFIELD     SUNNY     84  56  38 W12G18    29.97F
JOHNSTOWN      MOSUNNY   78  58  49 NW14      30.01F
ALTOONA        CLOUDY    83  58  42 NW13      29.97F
STATE COLLEGE  PTSUNNY   82  64  54 S8        29.95F
WILLIAMSPORT   LGT RAIN  75  63  66 SW10      29.90R
SELINSGROVE    MOSUNNY   85  60  42 S10G18    29.91F
FT INDIANTOWN  SUNNY     83  64  52 VRB5      29.92F
CAPITAL CITY   MOSUNNY   84  63  49 S5        29.92F
HARRISBURG     PTSUNNY   83  64  52 S7        29.92F
YORK           MOSUNNY   83  62  49 VRB5      29.94F
$$

PAZ038>040-043-044-047-048-054-055-060>062-067>071-302100-
EASTERN PENNSYLVANIA

CITY           SKY/WX    TMP DP  RH WIND       PRES   REMARKS
SCRANTON       MOSUNNY   85  58  39 SW8G17    29.91F
MOUNT POCONO   PTSUNNY   75  62  64 S9        29.98F
ALLENTOWN      MOSUNNY   84  63  49 SW5       29.93F
QUAKERTOWN*    MOCLDY    84  63  48 CALM      29.95F
READING        MOSUNNY   84  62  47 W5        29.93F
LANCASTER      MOSUNNY   85  60  42 VRB7      29.93F
COATESVILLE    MOCLDY    79  66  65 SE5       29.97F
POTTSTOWN      MOSUNNY   81  64  56 S6        29.95F
BLUE BELL      CLOUDY    77  68  73 S7        29.93F
DOYLESTOWN     CLOUDY    80  61  52 SW6       29.94F
WILLOW GROVE   NOT AVBL
NORTH PHILA    CLOUDY    80  67  64 S6        29.96F
PHILADELPHIA   CLOUDY    78  66  66 S9        29.95F
$$




USA.gov is the U.S. government's official web portal to all federal, state and local government web resources and services.